DW4348 Weather Reports


time (UTC)temp
C
wind
direction
speed
KPH
gust
KPH
rain 1hr
cm
rain 24hr
cm
rain mn
cm
humidity
%
barometer
mb
20260502130148 15 89 8.0 11.3 0.00 0.00 0.00 26 1011.4
20260502123206 15 84 3.2 8.0 0.00 0.00 0.00 27 1011.1
20260502121041 15 100 3.2 11.3 0.00 0.00 0.00 27 1010.9
20260502115031 15 92 1.6 6.4 0.00 0.00 0.00 27 1010.9
20260502110634 15 80 4.8 9.7 0.00 0.00 0.00 29 1010.8
20260502105639 15 89 4.8 8.0 0.00 0.00 0.00 29 1010.7
20260502104617 14 93 4.8 9.7 0.00 0.00 0.00 29 1010.6
20260502103557 15 86 6.4 9.7 0.00 0.00 0.00 29 1010.6
20260502102609 15 82 1.6 4.8 0.00 0.00 0.00 28 1010.5
20260502101632 15 136 0.0 0.0 0.00 0.00 0.00 28 1010.5
20260502100631 16 96 4.8 8.0 0.00 0.00 0.00 27 1010.4
20260502090553 16 78 6.4 9.7 0.00 0.00 0.00 25 1010.4
20260502065933 17 82 3.2 6.4 0.00 0.00 0.00 23 1010.3
20260502064904 18 98 0.0 3.2 0.00 0.00 0.00 22 1010.3
20260502063841 18 105 0.0 3.2 0.00 0.00 0.00 21 1010.3
20260502061750 18 67 4.8 12.9 0.00 0.00 0.00 22 1010.0
20260502060717 18 82 4.8 9.7 0.00 0.00 0.00 22 1009.9
20260502055646 19 85 4.8 8.0 0.00 0.00 0.00 21 1009.8
20260502054651 19 84 3.2 6.4 0.00 0.00 0.00 21 1009.8
20260502053625 19 78 3.2 8.0 0.00 0.00 0.00 21 1009.8
20260502052636 19 91 4.8 11.3 0.00 0.00 0.00 21 1009.8
20260502051610 19 91 4.8 11.3 0.00 0.00 0.00 21 1009.8
20260502050554 19 86 4.8 6.4 0.00 0.00 0.00 22 1009.7
20260502044428 20 156 0.0 0.0 0.00 0.00 0.00 20 1009.6
20260502043354 20 89 1.6 4.8 0.00 0.00 0.00 20 1009.3
20260502042345 20 119 0.0 1.6 0.00 0.00 0.00 20 1009.1
20260502041404 20 119 4.8 16.1 0.00 0.00 0.00 20 1008.9
20260502040336 21 224 6.4 17.7 0.00 0.00 0.00 19 1008.7
20260502034241 21 260 11.3 19.3 0.00 0.00 0.00 18 1008.0
20260502033218 21 269 6.4 16.1 0.00 0.00 0.00 18 1007.6
20260502031117 22 142 3.2 11.3 0.00 0.00 0.00 15 1007.0
20260502024933 22 131 3.2 17.7 0.00 0.00 0.00 15 1006.2
20260502023945 22 127 3.2 14.5 0.00 0.00 0.00 15 1006.0
20260502022915 23 142 6.4 24.1 0.00 0.00 0.00 14 1005.8
20260502021939 23 163 12.9 24.1 0.00 0.00 0.00 14 1005.5
20260502020931 23 224 11.3 22.5 0.00 0.00 0.00 13 1005.4
20260502015913 24 177 3.2 11.3 0.00 0.00 0.00 12 1005.0
20260502014919 24 137 0.0 1.6 0.00 0.00 0.00 11 1004.8
20260502013913 25 124 1.6 6.4 0.00 0.00 0.00 11 1004.7
20260502012920 25 148 0.0 6.4 0.00 0.00 0.00 10 1004.6
20260502011938 26 105 0.0 6.4 0.00 0.00 0.00 10 1004.4
20260502011001 25 120 1.6 6.4 0.00 0.00 0.00 11 1004.5
20260502010017 25 145 3.2 8.0 0.00 0.00 0.00 11 1004.5
20260502005035 25 143 1.6 12.9 0.00 0.00 0.00 11 1004.6
20260502002910 25 193 6.4 16.1 0.00 0.00 0.00 11 1004.4
20260502001843 25 183 9.7 16.1 0.00 0.00 0.00 11 1004.5
20260502000853 25 153 6.4 12.9 0.00 0.00 0.00 10 1004.5
20260501235829 25 159 6.4 16.1 0.00 0.00 0.00 10 1004.4
20260501234842 25 114 8.0 16.1 0.00 0.00 0.00 10 1004.5
20260501233837 26 109 8.0 29.0 0.00 0.00 0.00 10 1004.4
20260501232846 26 120 9.7 29.0 0.00 0.00 0.00 10 1004.3
20260501231857 26 190 4.8 16.1 0.00 0.00 0.00 10 1004.3
20260501230914 26 161 3.2 14.5 0.00 0.00 0.00 10 1004.5
20260501225846 26 142 6.4 14.5 0.00 0.00 0.00 10 1004.3
20260501224824 26 215 12.9 24.1 0.00 0.00 0.00 10 1004.3
20260501222640 26 127 11.3 25.7 0.00 0.00 0.00 10 1004.6
20260501221658 26 117 6.4 29.0 0.00 0.00 0.00 9 1004.7
20260501220653 26 101 11.3 29.0 0.00 0.00 0.00 9 1004.8
20260501215651 26 91 8.0 22.5 0.00 0.00 0.00 9 1004.9
20260501214651 25 96 11.3 35.4 0.00 0.00 0.00 9 1005.0
20260501213651 26 94 11.3 35.4 0.00 0.00 0.00 8 1005.1
20260501212639 26 139 11.3 25.7 0.00 0.00 0.00 8 1005.2
20260501211651 26 193 4.8 16.1 0.00 0.00 0.00 9 1005.4
20260501210636 26 44 6.4 16.1 0.00 0.00 0.00 11 1005.4
20260501205643 25 181 4.8 14.5 0.00 0.00 0.00 11 1005.5
20260501204640 26 91 4.8 17.7 0.00 0.00 0.00 11 1005.7
20260501202524 26 221 3.2 20.9 0.00 0.00 0.00 11 1005.8
20260501200339 26 75 6.4 17.7 0.00 0.00 0.00 11 1006.1
20260501195326 25 302 3.2 8.0 0.00 0.00 0.00 11 1006.2
20260501194309 25 111 4.8 16.1 0.00 0.00 0.00 11 1006.3
20260501193325 24 117 6.4 24.1 0.00 0.00 0.00 12 1006.6
20260501192317 25 84 6.4 24.1 0.00 0.00 0.00 11 1006.7
20260501191258 24 359 8.0 16.1 0.00 0.00 0.00 11 1006.9
20260501185145 26 91 3.2 12.9 0.00 0.00 0.00 11 1007.1
20260501184210 25 75 3.2 12.9 0.00 0.00 0.00 12 1007.2
20260501183138 23 156 3.2 12.9 0.00 0.00 0.00 12 1007.5
20260501182145 23 311 6.4 12.9 0.00 0.00 0.00 12 1007.7
20260501181143 23 169 4.8 11.3 0.00 0.00 0.00 12 1007.8
20260501180203 23 49 4.8 11.3 0.00 0.00 0.00 13 1007.9
20260501175158 23 27 3.2 11.3 0.00 0.00 0.00 13 1008.0
20260501174142 23 266 3.2 9.7 0.00 0.00 0.00 13 1008.1
20260501173135 23 267 3.2 9.7 0.00 0.00 0.00 13 1008.1
20260501172111 23 174 1.6 9.7 0.00 0.00 0.00 14 1008.2
20260501171104 22 283 3.2 9.7 0.00 0.00 0.00 14 1008.3
20260501170040 22 93 1.6 6.4 0.00 0.00 0.00 15 1008.2
20260501165027 22 135 1.6 8.0 0.00 0.00 0.00 15 1008.3
20260501164010 21 99 4.8 16.1 0.00 0.00 0.00 16 1008.4
20260501163031 21 184 3.2 16.1 0.00 0.00 0.00 17 1008.4
20260501162041 20 131 3.2 11.3 0.00 0.00 0.00 16 1008.4
20260501161100 21 115 1.6 4.8 0.00 0.00 0.00 17 1008.4
20260501160116 20 166 0.0 3.2 0.00 0.00 0.00 17 1008.4
20260501155051 20 104 0.0 3.2 0.00 0.00 0.00 19 1008.3
20260501154038 19 142 0.0 1.6 0.00 0.00 0.00 24 1008.3
20260501153031 18 167 1.6 4.8 0.00 0.00 0.00 26 1008.3
20260501144556 16 166 1.6 4.8 0.00 0.00 0.00 27 1008.3
20260501143551 16 166 1.6 6.4 0.00 0.00 0.00 28 1008.2
20260501142606 16 210 3.2 6.4 0.00 0.00 0.00 29 1008.1